Home > Time Zones > World Clock > Weather > U.S.A. > Gary > Past weeks

Flag for U.S.A. Weather past 2 weeks in Gary, Indiana, U.S.A.

Now
59 °F

Sunny.


Feels Like: 56 °F
Forecast: 51 / 63 °F
Wind: 12 mph from Northeast

Location: Lansing Municipal Airport

Current Time: May 22, 2015 at 5:15:59 PM

Latest Report: May 22, 2015 at 4:55 PM


Visibility: 10 mi

Pressure: 30.26 "Hg

Humidity: 36%

Dew point: 31 °F

Location of GaryLocation

Historic Weather in Gary — Graph

°F

Gary temperature yesterday

Maximum temperature yesterday: 67 °F (at 5:35 PM)
Minimum temperature yesterday: 44 °F (at 12:15 AM)
Average temperature yesterday: 54 °F

Past Weeks' High & Low Weather Summary

 TemperatureHumidityPressure
High83 °F (May 7, 3:15 PM)94% (May 9, 10:35 AM)30.51 "Hg (May 9, 10:35 AM)
Low40 °F (May 14, 2:15 AM)23% (May 21, 5:55 PM)29.79 "Hg (May 11, 3:35 PM)
Average58 °F70%30.09 "Hg
* Reported May 7 3:15 PM — May 22 3:55 PM, Gary, Weather by CustomWeather, © 2015

Note: Actual official high and low records may vary slightly from our data, if they occured in-between our weather recording intervals... More about our weather records

Advertising

Gary weather history for previous 24 hours

 ConditionsComfort  
Time TempWeatherWind HumidityBarometerVisibility
3:55 PM
Fri, May 22
62 °FSunny.12 mph32%30.26 "Hg10 mi
3:35 PM62 °FSunny.7 mph33%30.26 "Hg10 mi
3:15 PM63 °FSunny.6 mph35%30.26 "Hg10 mi
2:55 PM63 °FSunny.8 mph36%30.26 "Hg10 mi
2:15 PM63 °FSunny.6 mph39%30.25 "Hg10 mi
1:55 PM63 °FSunny.9 mph39%30.25 "Hg10 mi
1:35 PM63 °FSunny.9 mph41%30.24 "Hg10 mi
1:15 PM63 °FSunny.8 mph44%30.24 "Hg10 mi
12:55 PM62 °FSunny.7 mph45%30.24 "Hg10 mi
12:35 PM62 °FSunny.8 mph46%30.24 "Hg10 mi
12:15 PM63 °FSunny.9 mph49%30.23 "Hg10 mi
11:55 AM63 °FSunny.9 mph51%30.23 "Hg10 mi
11:15 AM61 °FSunny.7 mph57%30.23 "Hg10 mi
10:55 AM61 °FSunny.9 mph56%30.22 "Hg10 mi
10:35 AM61 °FSunny.7 mph58%30.21 "Hg10 mi
10:15 AM60 °FSunny.7 mph58%30.21 "Hg10 mi
9:55 AM60 °FSunny.3 mph59%30.20 "Hg10 mi
9:35 AM60 °FSunny.7 mph58%30.19 "Hg10 mi
9:15 AM60 °FSunny.7 mph56%30.19 "Hg10 mi
8:55 AM59 °FSunny.5 mph62%30.18 "Hg10 mi
8:35 AM58 °FSunny.No wind64%30.18 "Hg10 mi
8:15 AM56 °FSunny.No wind67%30.17 "Hg10 mi
7:55 AM55 °FSunny.3 mph69%30.16 "Hg10 mi
7:35 AM53 °FSunny.3 mph71%30.15 "Hg10 mi
7:15 AM52 °FSunny.3 mph75%30.15 "Hg10 mi
6:55 AM51 °FSunny.3 mph79%30.14 "Hg10 mi
6:15 AM49 °FSunny.3 mph82%30.13 "Hg10 mi
5:55 AM48 °FSunny.3 mph81%30.12 "Hg10 mi
5:35 AM48 °FSunny.6 mph82%30.11 "Hg10 mi
5:15 AM45 °FClear.No wind86%30.10 "Hg10 mi
4:55 AM44 °FClear.No wind85%30.09 "Hg10 mi
4:15 AM49 °FClear.3 mph73%30.08 "Hg10 mi
3:55 AM51 °FClear.No wind70%30.08 "Hg10 mi
3:35 AM51 °FClear.6 mph70%30.08 "Hg10 mi
3:15 AM51 °FClear.No wind68%30.06 "Hg10 mi
2:55 AM51 °FClear.No wind68%30.05 "Hg10 mi
2:35 AM53 °FClear.6 mph63%30.04 "Hg10 mi
2:15 AM54 °FClear.6 mph59%30.04 "Hg10 mi
1:55 AM55 °FClear.7 mph57%30.04 "Hg10 mi
1:35 AM54 °FClear.7 mph58%30.04 "Hg10 mi
1:15 AM54 °FClear.7 mph59%30.04 "Hg10 mi
12:55 AM52 °FClear.6 mph61%30.04 "Hg10 mi
12:35 AM51 °FClear.6 mph62%30.04 "Hg10 mi
12:15 AM50 °FClear.7 mph62%30.04 "Hg10 mi
11:55 PM
Thu, May 21
47 °FClear.7 mph70%30.05 "Hg10 mi
11:35 PM47 °FClear.5 mph69%30.04 "Hg10 mi
11:15 PM48 °FClear.5 mph67%30.04 "Hg10 mi
10:55 PM49 °FClear.3 mph63%30.04 "Hg10 mi
10:35 PM49 °FClear.3 mph67%30.05 "Hg10 mi
10:15 PM51 °FClear.6 mph60%30.04 "Hg10 mi
9:55 PM49 °FClear.No wind66%30.04 "Hg10 mi
9:35 PM52 °FClear.6 mph59%30.04 "Hg10 mi
9:15 PM51 °FClear.5 mph61%30.04 "Hg10 mi
8:55 PM56 °FClear.3 mph52%30.04 "Hg10 mi
8:35 PM59 °FClear.5 mph38%30.03 "Hg10 mi
8:15 PM60 °FClear.5 mph36%30.03 "Hg10 mi
7:55 PM62 °FSunny.6 mph32%30.03 "Hg10 mi
7:35 PM64 °FSunny.7 mph30%30.03 "Hg10 mi
7:15 PM65 °FSunny.7 mph28%30.03 "Hg10 mi
6:55 PM65 °FSunny.9 mph28%30.03 "Hg10 mi
6:35 PM66 °FSunny.10 mph26%30.03 "Hg10 mi
6:15 PM66 °FSunny.8 mph24%30.03 "Hg10 mi
5:55 PM66 °FSunny.9 mph23%30.04 "Hg10 mi
5:35 PM67 °FSunny.9 mph25%30.04 "Hg10 mi
5:15 PM66 °FSunny.14 mph24%30.04 "Hg10 mi
Weather by CustomWeather, © 2015

See weather overviewHow to use our weather pages